THORAD AGENA D DEB, 14467

Orbit data source: Space-Track

THORAD AGENA D DEB, 14467 is space debris in SSO originally from a launch on Wed, 08 Apr 1970 UTC launched from the Air Force Western Test Range (AFWTR). Debris objects in space refer to the collection of defunct objects orbiting the Earth. Examples of debris include non-operational satellites, rocket bodies, and fragments generated from explosions, collisions, or faulty payload assembly.

Loading next visibility...
Identifier
14467, 1970-025NT
Orbit
SSO
Country
Flag of USUS
Related business
Manufacturer
Unknown
Mission
Spacecraft
Bus & Motor
Unknown
Mass
Unknown
Launch date (UTC)
1970-04-08 (56 years ago)
Launch vehicle
Unknown
Launch site
Air Force Western Test Range (AFWTR)
Object type
Payload
Rocket body
Debris
Shape & HBR
Unknown shape, 0.1 m
Radar Cross Section
Small (<0.1 m²)

Expand to show TLE details & history
Last TLE update: 2 weeks ago

TLE from 2 weeks ago
0 THORAD AGENA D DEB
1 14467U 70025NT  26197.21369351  .00000157  00000-0  25512-3 0  9992
2 14467 100.0357  79.4101 0001510 336.8462 150.2348 13.64594396165758
Epoch: 2026-07-16T05:07Z
TLE epoch observation values (Epoch: 2026-07-16T05:07:43.119Z)
Latitude
51.86467°
Longitude
-98.61935°
Altitude
1,028.296 km
Speed
7.342 km/s
True Right ascension
18h 09m 28s
True Declination
51° 42' 13"
Sunlit
Object was in daylight at epoch
Visualization orbit readout
Latitude
Unknown
Longitude
Unknown
Altitude
Unknown
Speed
Unknown
Apparent Right ascension
Unknown
Apparent Declination
Unknown
Sunlit
N/A
Visualization observer readout
Local Sidereal Time
04:38:55
Azimuth
Unknown
Elevation
Unknown
Doppler factor
Unknown
Orbital elements
Apogee altitude
1,017.458 km
Perigee altitude
1,015.225 km
Semi-major axis
7,394.478 km
Eccentricity
0.00015
Inclination
100.0357°
RAAN
79.4101°
Arg. of periapsis
336.8462°
True anomaly
150.24339°
Mean anomaly
150.2348°
Eccentric anomaly
150.23909°
Mean motion
3.41336 °/min
Orbital period
105.47 mins
BSTAR
0.00025512
Loading maneuver chart data...
Computing Atmospheric mass density...

Documentation

Showing up to 5 results
|